This is the latest recevied weather packets stored in our database for station/object W5GMO. If no packets are shown the sender has not sent any weather packets the latest 10 day(s).
| Time | Temp. | Humidity | Pressure | Rain* | Wind** | Luminosity | Snow |
|---|---|---|---|---|---|---|---|
| 1788284350 | 34.44° C | 1% | 1015.5 hPa | 0 mm | - | 533 W/m² | - |
| 1788284045 | 34.44° C | 1% | 1015.6 hPa | 0 mm | - | 463 W/m² | - |
| 1788283741 | 34.44° C | 1% | 1015.6 hPa | 0 mm | - | 604 W/m² | - |
| 1788283440 | 33.89° C | 1% | 1015.5 hPa | 0 mm | - | 367 W/m² | - |
| 1788283139 | 33.89° C | 1% | 1015.6 hPa | 0 mm | - | 357 W/m² | - |
| 1788282837 | 35° C | 1% | 1015.5 hPa | 0 mm | - | 308 W/m² | - |
| 1788282536 | 35.56° C | 1% | 1015.8 hPa | 0 mm | - | 917 W/m² | - |
| 1788282232 | 35.56° C | 1% | 1015.9 hPa | 0 mm | - | 475 W/m² | - |
| 1788281926 | 35° C | 1% | 1016 hPa | 0 mm | - | 753 W/m² | - |
| 1788281619 | 33.89° C | 1% | 1015.9 hPa | 0 mm | - | 506 W/m² | - |
| 1788281316 | 33.33° C | 1% | 1016.1 hPa | 0 mm | - | 787 W/m² | - |
| 1788281011 | 33.89° C | 1% | 1016.2 hPa | 0 mm | - | 506 W/m² | - |
| 1788280732 | 33.33° C | 1% | 1016.2 hPa | 0 mm | - | 343 W/m² | - |
| 1788280406 | 33.33° C | 1% | 1016.3 hPa | 0 mm | - | 657 W/m² | - |
| 1788280101 | 33.89° C | 1% | 1016.4 hPa | 0 mm | - | 616 W/m² | - |
| 1788279800 | 34.44° C | 1% | 1016.3 hPa | 0 mm | - | 644 W/m² | - |
| 1788279500 | 34.44° C | 1% | 1016.4 hPa | 0 mm | - | 771 W/m² | - |
| 1788279194 | 34.44° C | 1% | 1016.4 hPa | 0 mm | - | 732 W/m² | - |
| 1788278890 | 33.89° C | 1% | 1016.5 hPa | 0 mm | - | 812 W/m² | - |
| 1788278586 | 33.89° C | 1% | 1016.6 hPa | 0 mm | - | 577 W/m² | - |
| 1788278285 | 32.78° C | 1% | 1016.6 hPa | 0 mm | - | 747 W/m² | - |
| 1788277980 | 32.78° C | 1% | 1016.8 hPa | 0 mm | - | 713 W/m² | - |
| 1788277676 | 33.33° C | 1% | 1016.7 hPa | 0 mm | - | 612 W/m² | - |
| 1788277370 | 32.22° C | 1% | 1016.8 hPa | 0 mm | - | 702 W/m² | - |
| 1788277065 | 32.22° C | 1% | 1016.9 hPa | 0 mm | - | 768 W/m² | - |
* Rain latest hour (hover to see other rain measurements)
** Current wind speed in m/s (hover to see current wind gust speed)